Weather History for Montrose, CO

Change the Weather History Date:

Thursday, June 27, 2013

  Actual Average Record
Temperature  
Mean Temperature 79 °F 72 °F  
Max Temperature 98 °F 88 °F 98 °F (2013)
Min Temperature 59 °F 55 °F 48 °F (2000)
Degree Days  
Heating Degree Days 0 0  
Month to date heating degree days 9 38  
Since 1 June heating degree days 9 38  
Since 1 July heating degree days 6124 6202  
Cooling Degree Days 14 7  
Month to date cooling degree days 194 113  
Year to date cooling degree days 219 130  
Since 1 June cooling degree days 194 113  
Growing Degree Days 28 (Base 50)    
Moisture  
Dew Point 35 °F    
Average Humidity 25    
Maximum Humidity 42    
Minimum Humidity 8    
Precipitation  
Precipitation 0.00 in 0.03 in 0.07 in (2000)
Month to date precipitation T 0.68  
Year to date precipitation 2.65 4.98  
Sea Level Pressure  
Sea Level Pressure 29.99 in    
Wind  
Wind Speed 9 mph (SSE)    
Max Wind Speed 22 mph    
Max Gust Speed 25 mph    
Visibility 10 miles    
Events      
T = Trace of Precipitation, MM = Missing Value Source: NWS Daily Summary

Daily Weather History Graph

Daily Weather History Graph

Search for Another Location

Airport:

Trip Planner

Search our weather history database for the weather conditions in past years. The results will help you decide how hot, cold, wet, or windy it might be!

Date:

Astronomy

Jun. 27, 2013 Rise Set
Actual Time 5:49 AM MDT 8:39 PM MDT
Civil Twilight 5:17 AM MDT 9:11 PM MDT
Nautical Twilight 4:37 AM MDT 9:51 PM MDT
Astronomical Twilight 3:52 AM MDT 10:36 PM MDT
Moon 11:43 PM MDT (6/27) 10:50 AM MDT (6/27)
Length of Visible Light 15h 53m
Length of Day
14h 50m
Waning Gibbous, 76% of the Moon is Illuminated
Jun 27
Waning Gibbous
Jun 29
Last Quarter
Jul 8
New
Jul 15
First Quarter
Jul 22
Full

Hourly Weather History & Observations

Time (MDT) Temp. Dew Point Humidity Pressure Visibility Wind Dir Wind Speed Gust Speed Precip Events Conditions
12:53 AM 66.9 °F 35.1 °F 31% 29.95 in 10.0 mi SE 9.2 mph - N/A   Clear
1:53 AM 69.1 °F 34.0 °F 27% 29.94 in 10.0 mi SE 10.4 mph - N/A   Clear
2:53 AM 68.0 °F 34.0 °F 28% 29.95 in 10.0 mi ESE 12.7 mph - N/A   Clear
3:53 AM 66.9 °F 34.0 °F 30% 29.96 in 10.0 mi SE 10.4 mph - N/A   Clear
4:53 AM 63.0 °F 34.0 °F 34% 29.99 in 10.0 mi ESE 6.9 mph - N/A   Clear
5:53 AM 60.1 °F 36.0 °F 41% 30.02 in 10.0 mi South 6.9 mph - N/A   Clear
6:53 AM 60.1 °F 37.9 °F 44% 30.04 in 10.0 mi SSE 8.1 mph - N/A   Clear
7:53 AM 70.0 °F 39.0 °F 32% 30.04 in 10.0 mi SE 9.2 mph - N/A   Clear
8:53 AM 75.9 °F 39.0 °F 26% 30.06 in 10.0 mi South 3.5 mph - N/A   Clear
9:53 AM 81.0 °F 34.0 °F 18% 30.06 in 8.0 mi WNW 5.8 mph - N/A   Clear
10:53 AM 82.9 °F 35.1 °F 18% 30.06 in 10.0 mi Variable 3.5 mph - N/A   Clear
11:53 AM 88.0 °F 37.0 °F 16% 30.06 in 8.0 mi NNW 5.8 mph - N/A   Clear
12:53 PM 93.0 °F 37.0 °F 14% 30.02 in 10.0 mi NNW 8.1 mph - N/A   Clear
1:53 PM 95.0 °F 30.0 °F 10% 29.99 in 10.0 mi NNW 9.2 mph - N/A   Clear
2:53 PM 96.1 °F 30.9 °F 10% 29.96 in 10.0 mi NW 12.7 mph - N/A   Clear
3:53 PM 96.1 °F 32.0 °F 10% 29.94 in 10.0 mi NW 12.7 mph - N/A   Clear
4:53 PM 97.0 °F 33.1 °F 11% 29.94 in 10.0 mi NW 10.4 mph 19.6 mph N/A   Clear
5:53 PM 97.0 °F 27.0 °F 8% 29.94 in 10.0 mi West 11.5 mph - N/A   Clear
6:53 PM 95.0 °F 33.1 °F 11% 29.95 in 10.0 mi South 16.1 mph 20.7 mph N/A   Clear
7:53 PM 90.0 °F 35.1 °F 14% 29.94 in 10.0 mi SSE 15.0 mph - N/A   Clear
8:53 PM 86.0 °F 36.0 °F 17% 29.94 in 10.0 mi South 10.4 mph - N/A   Clear
9:53 PM 80.1 °F 37.0 °F 21% 29.96 in 10.0 mi SE 10.4 mph - N/A   Clear
10:53 PM 77.0 °F 37.9 °F 24% 29.98 in 10.0 mi SE 8.1 mph - N/A   Clear
11:53 PM 73.9 °F 39.0 °F 28% 29.98 in 10.0 mi SSE 6.9 mph - N/A   Clear